Weather in Kukmor

Russia / Republic of Tatarstan     56°11′11″N   50°53′38″E
temp.,
°C
wind,
m/s
gust,
m/s
humid.,
%
clouds,
%
prec.,
mm/h
press.,
hPa
HPBL,
m
19 january, tue
tue1900:00−24ne1297100 0.0 102120
03:00−22ene1296100 0.0 102034
06:00−21ne1296100 0.0 101995
09:00−19ne2494100 0.0 1018192
12:00−17ne2393100 0.1 1017239
15:00−16n1297100 0.8 1015163
18:00−18nne229892 0.3 101522
21:00−18nnw119796 0.4 101420
20 january, wed
wed2000:00−18nw2296100 0.1 101457
03:00−18wnw2496100 0.2 1014125
06:00−19wnw3595100 0.0 1013140
09:00−18wnw3596100 0.1 1014247
12:00−17wnw3696100 0.3 1014280
15:00−17wnw3694100 0.6 1015318
18:00−18w3695100 0.0 1015168
21:00−19w379799 0.1 1016174
21 january, thu
thu2100:00−19w379785 0.1 1016177
03:00−18w389691 0.2 1017220
06:00−18w3796100 0.1 1017186
09:00−16w4795100 0.3 1017258
12:00−14wsw4894100 0.1 1017315
15:00−14wsw4994100 0.3 1017328
18:00−15sw4995100 0.1 1016262
21:00−14sw51091100 0.1 1014270
22 january, fri
fri2200:00−13ssw61294100 0.2 1011442
03:00−11wsw41195100 2.1 1008729
06:00−10w51094100 1.1 1008570
09:00−10w3795100 1.6 1009437
12:00−9w2493100 0.1 1010323
15:00−10se0195100 0.2 101121
18:00−9se2297100 0.4 101254
21:00−9ese3596100 1.2 1012170
23 january, sat
sat2300:00−10ese3696100 0.6 1013169
03:00−9ese3695100 0.6 1014222
06:00−9ese4795100 0.5 1015233
09:00−8se4795100 2.3 1014209
12:00−3sse2499100 1.8 1013145
15:00+1wsw411100100 2.9 1013398
18:00+1wsw512100100 1.0 1015447
21:00+1wsw51099100 1.4 1015402